星链-6055 (STARLINK-6055 )

导读

STARLINK-6055是美国太空探索技术公司Starlink星链卫星互联网项目的卫星,于2023年5月10日发射入轨,属于星链组网卫星,旨在为全球提供低延迟、高速率的卫星互联网服务,尤其覆盖偏远、网络基础设施匮乏区域。星链系统通过大规模低轨卫星组网,为商业、民用甚至特殊领域提供网络接入服务,该卫星是星链扩张进程中的一员。

Basic Information
目录编号:
56467
目录名称:
STARLINK-6055
国际标识:
2023-064V
轨道中心:
EARTH
卫星名称:
星链-6055
卫星全名:
星链-6055 (STARLINK-6055 )
卫星状态:
在轨 (已飞行1221 天)
发射日期:
2023-05-10 UTC
国别 :
美国 (US)
星等 :
--
This satellite is enrolled in the Space Conjunction Data Service (SCDS) and the current flight risk assessment level is: No High Risk
Orbit Information
数据来源 国际轨道数据 AOE轨道数据
星历时间 2026-09-12T09:34:21+0800
15小时前
查看轨道信息
2026-09-11T07:00:00+0800
1天前
查看轨道信息
半长轴 6948.448km 6950.183km
偏心率 0.0003716 0.0002746
轨道倾角 70.001° 70.002°
近地点辐角 264.593° 272.157°
升交点赤经 14.656° 17.449°
平近点角 95.481° 233.835°
近地点 567.728km 570.137km
远地点 572.894km 573.955km
周期 96.071分钟 96.107分钟
每日圈数 14.988946 14.983333
Detailed Information
固有亮度:
5
最大亮度:
2.5
卫星平台:
Starlink v1.5
覆盖范围:
全球
运营商:
太空探索技术公司
运营商所在国:
美国
制造商(研发单位):
太空探索技术公司
制造商所在国:
美国
使用方式:
暂无
Satellite Introduction
星链(Starlink)计划是由太空探索技术公司(SpaceX)提出的一个巨型低轨卫星互联网星座项目,计划在2019年至2024年间在太空搭建由约1.2万颗卫星组成的“星链”网络,其中1584颗将部署在地球上空550千米处的近地轨道,并从2020年开始工作。该卫星仍在工作。
2D Orbit Map
3D Orbit Map
Orbit Altitude Analysis Chart
Orbit Inclination Analysis Chart
Orbit Comprehensive Analysis Chart
View Comprehensive Chart
Conjunction Data List
Event ID Objects TCA Miss Dist (km) Collision Risk Probability Collision Risk Index (CRI) Action
CDM_260912-223305-646706-684521
2026-09-12T
22:33:40+0000
1.631 km
极远距离
4.884153E-6 低风险 0.49
CDM_260914-065205-646706-326421
2026-09-14T
06:52:20+0000
2.261 km
极远距离
2.08449E-6 低风险 0.41
CDM_260912-200905-646706-684521
2026-09-12T
20:09:30+0000
2.548 km
极远距离
1.62564E-6 低风险 0.39
CDM_260913-090605-528605-646721
2026-09-13T
09:06:13+0000
2.519 km
极远距离
1.445264E-6 低风险 0.38
Miss Distance Evolution Trend with All Objects
Collision Probability Evolution Trend with All Objects